Погода в Кулицкой

Россия / Тверская область     56°58′39″N   35°40′58″E
темп.,
°C
ветер,
м/с
пор.,
м/с
влажн.,
%
обл.,
%
осадки,
мм/ч
давл.,
гПа
погр.,
м
6 марта, сб
сб600:00−9зсз259356 0.0 1014120
03:00−10зсз259528 0.0 1016104
06:00−10з369487 0.0 1016186
09:00−8зсз369094 0.2 1017449
12:00−6сз357397 0.1 10171002
15:00−5зсз356799 0.2 10151131
18:00−7юз237958 0.1 101345
21:00−7юз4118045 0.1 1011386
7 марта, вс
вс700:00−6ююз61380100 0.0 1006778
03:00−5юз71392100 0.8 10011050
06:00−3юз71394100 1.5 9951063
09:00−2юз71387100 2.4 9911056
12:00−5зсз101480100 1.8 9911106
15:00−4зсз71257100 1.9 9932055
18:00−6зюз299167 0.1 993709
21:00−5зюз599183 1.9 992741
8 марта, пн
пн800:00−7зсз3695100 0.4 992243
03:00−8с3792100 1.4 994381
06:00−12сз4129187 0.0 995351
09:00−10сз6128870 0.1 998757
12:00−7сз6983100 0.2 10011013
15:00−7ссз6982100 0.3 10041096
18:00−9ссз4985100 0.1 1006804
21:00−11ссз4992100 0.3 1009677
9 марта, вт
вт900:00−14ссз4892100 0.1 1012514
03:00−17ссз3895100 0.1 1014346
06:00−19сз379690 0.0 1016226
09:00−19сз369164 0.0 1018331
12:00−14сз347962 0.0 1018494
15:00−11сз347141 0.0 1018753
18:00−12ссв1185100 0.0 101720
21:00−15всв2492100 0.0 1018127
10 марта, ср
ср1000:00−18всв369799 0.0 1019159
03:00−21св369681 0.0 1020151
06:00−23св25970 0.0 1022140
09:00−22ссв35910 0.0 1024254
12:00−18св34800 0.0 1025422
15:00−15ссв23730 0.0 1025601
18:00−18св248733 0.0 1025122
21:00−21св239241 0.0 102758